TimeEDT,TemperatureF,Dew PointF,Humidity,Sea Level PressureIn,VisibilityMPH,Wind Direction,Wind SpeedMPH,Gust SpeedMPH,PrecipitationIn,Events,Conditions,WindDirDegrees,DateUTC
12:53 AM,70.0,60.1,71,29.99,10.0,WSW,3.5,-,N/A,,Clear,250,2013-08-20 04:53:00
1:53 AM,64.9,60.1,84,29.98,10.0,Calm,Calm,-,N/A,,Clear,0,2013-08-20 05:53:00
2:53 AM,64.9,61.0,87,29.99,10.0,Calm,Calm,-,N/A,,Clear,0,2013-08-20 06:53:00
3:53 AM,61.0,59.0,93,30.00,10.0,Calm,Calm,-,N/A,,Clear,0,2013-08-20 07:53:00
4:23 AM,59.0,57.2,94,30.00,1.5,Calm,Calm,-,N/A,,Clear,0,2013-08-20 08:23:00
4:31 AM,60.8,59.0,94,30.00,0.5,Calm,Calm,-,N/A,Fog,Fog,0,2013-08-20 08:31:00
4:45 AM,60.8,57.2,88,30.00,2.5,Calm,Calm,-,N/A,,Clear,0,2013-08-20 08:45:00
4:53 AM,59.0,57.0,93,30.01,7.0,Calm,Calm,-,N/A,,Clear,0,2013-08-20 08:53:00
5:07 AM,60.8,57.2,88,30.01,1.5,Calm,Calm,-,N/A,,Clear,0,2013-08-20 09:07:00
5:10 AM,59.0,57.2,94,30.01,0.5,Calm,Calm,-,N/A,Fog,Fog,0,2013-08-20 09:10:00
5:53 AM,59.0,57.0,93,30.02,3.0,Calm,Calm,-,N/A,,Partly Cloudy,0,2013-08-20 09:53:00
6:21 AM,57.2,55.4,94,30.03,1.2,Calm,Calm,-,N/A,,Clear,0,2013-08-20 10:21:00
6:32 AM,57.2,57.2,100,30.03,4.0,Calm,Calm,-,N/A,,Clear,0,2013-08-20 10:32:00
6:53 AM,59.0,57.9,96,30.04,7.0,Calm,Calm,-,N/A,,Clear,0,2013-08-20 10:53:00
7:53 AM,66.9,63.0,87,30.05,10.0,Calm,Calm,-,N/A,,Clear,0,2013-08-20 11:53:00
8:53 AM,75.0,62.1,64,30.05,10.0,Calm,Calm,-,N/A,,Clear,0,2013-08-20 12:53:00
9:53 AM,78.1,62.1,58,30.06,10.0,Variable,3.5,-,N/A,,Clear,0,2013-08-20 13:53:00
10:53 AM,81.0,61.0,50,30.06,10.0,WSW,3.5,-,N/A,,Clear,250,2013-08-20 14:53:00
11:53 AM,82.0,61.0,49,30.06,10.0,WNW,6.9,-,N/A,,Clear,300,2013-08-20 15:53:00
12:53 PM,84.0,59.0,43,30.05,10.0,West,6.9,-,N/A,,Clear,260,2013-08-20 16:53:00
1:53 PM,86.0,57.9,38,30.05,10.0,WSW,8.1,-,N/A,,Clear,240,2013-08-20 17:53:00
2:53 PM,84.9,57.0,38,30.04,10.0,West,6.9,-,N/A,,Clear,260,2013-08-20 18:53:00
3:53 PM,84.9,55.0,36,30.03,10.0,WSW,6.9,-,N/A,,Clear,240,2013-08-20 19:53:00
4:53 PM,84.9,57.0,38,30.04,10.0,WNW,8.1,-,N/A,,Clear,290,2013-08-20 20:53:00
5:53 PM,82.9,59.0,44,30.04,10.0,West,6.9,-,N/A,,Clear,260,2013-08-20 21:53:00
6:53 PM,81.0,60.1,49,30.05,10.0,West,3.5,-,N/A,,Clear,270,2013-08-20 22:53:00
7:53 PM,73.0,63.0,71,30.06,10.0,Calm,Calm,-,N/A,,Clear,0,2013-08-20 23:53:00
8:53 PM,68.0,63.0,84,30.07,10.0,Calm,Calm,-,N/A,,Clear,0,2013-08-21 00:53:00
9:53 PM,64.9,62.1,90,30.09,7.0,Calm,Calm,-,N/A,,Clear,0,2013-08-21 01:53:00
10:53 PM,63.0,61.0,93,30.09,4.0,Calm,Calm,-,N/A,,Clear,0,2013-08-21 02:53:00
11:42 PM,62.6,60.8,94,30.09,2.5,Calm,Calm,-,N/A,,Clear,0,2013-08-21 03:42:00
11:53 PM,63.0,60.1,90,30.09,3.0,Calm,Calm,-,N/A,,Clear,0,2013-08-21 03:53:00